Weather History for Oxnard, CA

Change the Weather History Date:

Wednesday, January 1, 2014

  Actual Average Record
Temperature  
Mean Temperature 50 °F -  
Max Temperature 62 °F 65 °F 78 °F (1969)
Min Temperature 39 °F 44 °F 32 °F (1965)
Degree Days  
Heating Degree Days 14    
Moisture  
Dew Point 44 °F    
Average Humidity 75    
Maximum Humidity 97    
Minimum Humidity 43    
Precipitation  
Precipitation 0.00 in - - ()
Sea Level Pressure  
Sea Level Pressure 30.09 in    
Wind  
Wind Speed 4 mph (NNW)    
Max Wind Speed 9 mph    
Max Gust Speed -    
Visibility 8 miles    
Events      
Averages and records for this station are not official NWS values.
T = Trace of Precipitation, MM = Missing Value Source: NWS Daily Summary

Daily Weather History Graph

Daily Weather History Graph

Search for Another Location

Airport:

Trip Planner

Search our weather history database for the weather conditions in past years. The results will help you decide how hot, cold, wet, or windy it might be!

Date:

Astronomy

Jan. 01, 2014 Rise Set
Actual Time 7:02 AM PST 4:58 PM PST
Civil Twilight 6:35 AM PST 5:26 PM PST
Nautical Twilight 6:03 AM PST 5:57 PM PST
Astronomical Twilight 5:33 AM PST 6:27 PM PST
Moon 7:00 AM PST (1/1) 5:45 PM PST (1/1)
Length of Visible Light 10h 50m
Length of Day
9h 55m
New Moon, 0% of the Moon is Illuminated
Jan 1
New Moon
Jan 7
First Quarter
Jan 15
Full
Jan 23
Last Quarter
Jan 30
New

Hourly Weather History & Observations

Time (PST) Temp. Windchill Dew Point Humidity Pressure Visibility Wind Dir Wind Speed Gust Speed Precip Events Conditions
12:51 AM 45.0 °F 43.5 °F 39.0 °F 80% 30.12 in 8.0 mi ENE 3.5 mph - N/A   Clear
1:51 AM 44.1 °F 41.5 °F 37.9 °F 79% 30.11 in 10.0 mi ENE 4.6 mph - N/A   Clear
2:51 AM 44.1 °F 40.8 °F 36.0 °F 73% 30.10 in 10.0 mi ENE 5.8 mph - N/A   Clear
3:51 AM 45.0 °F 43.5 °F 36.0 °F 71% 30.10 in 10.0 mi East 3.5 mph - N/A   Clear
4:51 AM 43.0 °F 41.3 °F 33.1 °F 68% 30.09 in 10.0 mi NE 3.5 mph - N/A   Clear
5:51 AM 44.1 °F 42.5 °F 28.9 °F 55% 30.09 in 10.0 mi East 3.5 mph - N/A   Clear
6:51 AM 39.9 °F 37.8 °F 30.0 °F 68% 30.11 in 10.0 mi NE 3.5 mph - N/A   Clear
7:51 AM 44.1 °F - 28.0 °F 53% 30.12 in 10.0 mi Calm Calm - N/A   Clear
8:51 AM 51.1 °F - 28.9 °F 43% 30.14 in 10.0 mi Calm Calm - N/A   Clear
9:51 AM 57.0 °F - 44.1 °F 62% 30.14 in 10.0 mi NW 3.5 mph - N/A   Clear
10:51 AM 60.1 °F - 48.9 °F 67% 30.12 in 10.0 mi West 6.9 mph - N/A   Clear
11:51 AM 61.0 °F - 50.0 °F 67% 30.09 in 10.0 mi West 5.8 mph - N/A   Clear
12:51 PM 62.1 °F - 50.0 °F 65% 30.07 in 10.0 mi WSW 5.8 mph - N/A   Clear
1:51 PM 62.1 °F - 48.9 °F 62% 30.05 in 10.0 mi WSW 6.9 mph - N/A   Clear
2:51 PM 62.1 °F - 48.9 °F 62% 30.05 in 10.0 mi West 9.2 mph - N/A   Clear
3:51 PM 61.0 °F - 52.0 °F 72% 30.05 in 10.0 mi West 9.2 mph - N/A   Clear
4:51 PM 57.9 °F - 54.0 °F 87% 30.06 in 10.0 mi West 5.8 mph - N/A   Clear
5:51 PM 55.9 °F - 53.1 °F 90% 30.07 in 6.0 mi Calm Calm - N/A   Clear
6:51 PM 54.0 °F - 53.1 °F 97% 30.07 in 5.0 mi Calm Calm - N/A   Clear
7:51 PM 52.0 °F - 51.1 °F 97% 30.08 in 4.0 mi NNW 3.5 mph - N/A   Clear
8:00 PM 50.0 °F - 48.2 °F 94% 30.08 in 4.0 mi Calm Calm - N/A   Partly Cloudy
8:51 PM 48.9 °F - 48.0 °F 97% 30.08 in 4.0 mi North 3.5 mph - N/A   Clear
9:51 PM 50.0 °F - 48.0 °F 93% 30.08 in 4.0 mi Calm Calm - N/A   Clear
10:51 PM 48.0 °F - 46.9 °F 96% 30.09 in 5.0 mi Calm Calm - N/A   Clear
11:51 PM 50.0 °F - 45.0 °F 83% 30.09 in 9.0 mi Variable 3.5 mph - N/A   Clear